Latest Coastal Weather Observations for Bougainville Reef

IDQ60701

Issued at 12:22 am EST Thursday 11 August 2022 (issued every 10 minutes, with the page automatically refreshed every 10 minutes)

About coastal observations | Map of coastal stations | Coastal observations for QLD | Marine services | Other Formats
Station Details ID: 200840 Name: BOUGAINVILLE REEF Lat: -15.49 Lon: 147.12 Height: 0.0 m
Data from the previous 72 hours. | See also: Recent months for locations in Queensland
Date/Time
EST
Wind Sea
Height
m
Swell Vis
km
Cloud Weather Temp
°C
Press
MSL
hPa
Rain since
9am
mm
Dir  Spd
kts
Gust
kts
Height
m
Period
s
Dir
11/12:00am SE 14 16 - - - - - - - 24.4 1016.3 -
 
Date/Time
EST
Wind Sea
Height
m
Swell Vis
km
Cloud Weather Temp
°C
Press
MSL
hPa
Rain since
9am
mm
Dir  Spd
kts
Gust
kts
Height
m
Period
s
Dir
10/11:30pm SE 14 16 - - - - - - - 24.4 1016.6 -
10/11:00pm SE 13 15 - - - - - - - 24.1 1016.8 -
10/10:30pm SE 12 15 - - - - - - - 24.2 1016.9 -
10/10:00pm SE 13 15 - - - - - - - 24.4 1016.9 -
10/09:30pm SE 13 15 - - - - - - - 24.4 1016.8 -
10/09:00pm SE 13 15 - - - - - - - 24.5 1016.9 -
10/08:30pm SE 13 15 - - - - - - - 24.4 1016.7 -
10/08:00pm SE 14 16 - - - - - - - 24.4 1016.4 -
10/07:30pm SE 14 15 - - - - - - - 24.3 1016.0 -
10/07:00pm SE 14 16 - - - - - - - 24.3 1015.7 -
10/06:30pm SE 14 16 - - - - - - - 24.3 1015.2 -
10/06:00pm SE 13 16 - - - - - - - 24.2 1015.0 -
10/05:30pm SE 14 16 - - - - - - - 24.2 1014.7 -
10/05:00pm SE 13 16 - - - - - - - 24.1 1014.5 -
10/04:30pm SE 13 16 - - - - - - - 24.3 1014.3 -
10/04:00pm SE 14 16 - - - - - - - 24.1 1014.3 -
10/03:30pm SE 13 15 - - - - - - - 24.2 1014.2 -
10/03:00pm SE 13 15 - - - - - - - 24.3 1014.3 -
10/02:30pm SE 13 15 - - - - - - - 24.1 1014.4 -
10/02:00pm SE 13 15 - - - - - - - 24.2 1014.8 -
10/01:30pm SE 13 15 - - - - - - - 24.1 1015.1 -
10/01:00pm SE 13 15 - - - - - - - 24.1 1015.3 -
10/12:30pm SE 12 14 - - - - - - - 23.8 1015.6 -
10/12:00pm SE 11 13 - - - - - - - 24.2 1015.9 -
10/11:30am SE 12 15 - - - - - - - 24.2 1016.3 -
10/11:00am SE 12 14 - - - - - - - 24.0 1016.9 -
10/10:30am SE 12 15 - - - - - - - 23.9 1017.1 -
10/10:00am SE 12 15 - - - - - - - 24.3 1017.3 -
10/09:30am SE 12 15 - - - - - - - 24.0 1017.3 -
10/09:00am SE 13 15 - - - - - - - 24.0 1017.0 -
10/08:30am SE 12 14 - - - - - - - 24.0 1016.9 -
10/08:00am SE 13 14 - - - - - - - 23.9 1016.7 -
10/07:30am SE 12 14 - - - - - - - 24.0 1016.4 -
10/07:00am SE 12 14 - - - - - - - 23.6 1016.1 -
10/06:30am SE 11 14 - - - - - - - 23.6 1015.9 -
10/06:00am SE 12 14 - - - - - - - 23.3 1015.6 -
10/05:30am ESE 11 13 - - - - - - - 23.3 1015.4 -
10/05:00am SE 12 14 - - - - - - - 23.4 1014.9 -
10/04:30am SSE 11 13 - - - - - - - 22.9 1014.9 -
10/04:00am SE 12 15 - - - - - - - 23.0 1014.7 -
10/03:30am SE 13 14 - - - - - - - 23.1 1014.8 -
10/03:00am SE 12 14 - - - - - - - 23.6 1014.9 -
10/02:30am SE 12 14 - - - - - - - 23.3 1015.2 -
10/02:00am SSE 12 14 - - - - - - - 23.1 1015.4 -
10/01:30am SE 12 14 - - - - - - - 23.1 1015.7 -
10/01:00am SE 11 14 - - - - - - - 23.1 1016.0 -
10/12:30am SE 12 14 - - - - - - - 23.1 1016.3 -
10/12:00am SE 11 14 - - - - - - - 23.3 1016.5 -
 
Date/Time
EST
Wind Sea
Height
m
Swell Vis
km
Cloud Weather Temp
°C
Press
MSL
hPa
Rain since
9am
mm
Dir  Spd
kts
Gust
kts
Height
m
Period
s
Dir
09/11:30pm SE 12 14 - - - - - - - 23.3 1016.7 -
09/11:00pm SE 12 15 - - - - - - - 23.0 1016.9 -
09/10:30pm SE 12 15 - - - - - - - 23.0 1016.9 -
09/10:00pm SE 12 14 - - - - - - - 23.2 1017.0 -
09/09:30pm SE 13 15 - - - - - - - 23.2 1016.9 -
09/09:00pm SE 13 15 - - - - - - - 23.2 1016.8 -
09/08:30pm SSE 13 16 - - - - - - - 23.1 1016.7 -
09/08:00pm SE 13 17 - - - - - - - 23.1 1016.5 -
09/07:30pm SSE 13 15 - - - - - - - 23.1 1016.0 -
09/07:00pm SE 12 14 - - - - - - - 23.4 1015.8 -
09/06:30pm SE 13 15 - - - - - - - 23.3 1015.3 -
09/06:00pm SE 13 16 - - - - - - - 23.1 1014.8 -
09/05:30pm SE 13 15 - - - - - - - 23.2 1014.3 -
09/05:00pm SE 13 16 - - - - - - - 23.3 1013.9 -
09/04:30pm SSE 13 16 - - - - - - - 23.2 1013.4 -
09/04:00pm SSE 14 16 - - - - - - - 23.1 1013.0 -
09/03:30pm SSE 14 16 - - - - - - - 23.3 1012.8 -
09/03:00pm SSE 14 17 - - - - - - - 23.3 1012.8 -
09/02:30pm SSE 13 16 - - - - - - - 23.7 1012.9 -
09/02:00pm SSE 14 17 - - - - - - - 23.6 1013.2 -
09/01:30pm SSE 13 15 - - - - - - - 23.8 1013.5 -
09/01:00pm SSE 13 15 - - - - - - - 23.8 1013.7 -
09/12:30pm SSE 13 16 - - - - - - - 23.8 1014.0 -
09/12:00pm SSE 13 15 - - - - - - - 23.8 1014.6 -
09/11:30am SE 13 15 - - - - - - - 23.9 1014.8 -
09/11:00am SE 12 14 - - - - - - - 24.0 1014.9 -
09/10:30am SE 13 14 - - - - - - - 24.0 1015.4 -
09/10:00am SE 13 15 - - - - - - - 24.1 1015.3 -
09/09:30am SE 14 15 - - - - - - - 24.0 1015.4 -
09/09:00am SE 13 15 - - - - - - - 24.2 1015.4 -
09/08:30am SE 14 16 - - - - - - - 24.0 1015.4 -
09/08:00am SE 14 16 - - - - - - - 24.1 1015.2 -
09/07:30am SE 14 16 - - - - - - - 24.1 1014.9 -
09/07:00am SE 13 15 - - - - - - - 24.2 1014.9 -
09/06:30am SE 14 16 - - - - - - - 24.3 1014.3 -
09/06:00am SE 13 16 - - - - - - - 24.0 1014.1 -
09/05:30am SE 13 14 - - - - - - - 24.6 1013.8 -
09/05:00am SE 13 15 - - - - - - - 24.1 1013.7 -
09/04:30am SE 12 14 - - - - - - - 24.7 1013.6 -
09/04:00am SE 12 15 - - - - - - - 24.1 1013.3 -
09/03:30am SE 13 15 - - - - - - - 24.2 1013.1 -
09/03:00am SE 14 16 - - - - - - - 24.2 1013.3 -
09/02:30am SE 13 16 - - - - - - - 24.3 1013.4 -
09/02:00am SE 13 15 - - - - - - - 24.4 1013.7 -
09/01:30am SE 13 15 - - - - - - - 24.6 1013.9 -
09/01:00am SE 13 15 - - - - - - - 24.5 1014.1 -
09/12:30am SE 14 16 - - - - - - - 24.6 1014.3 -
09/12:00am SE 13 16 - - - - - - - 24.6 1014.4 -
 
Date/Time
EST
Wind Sea
Height
m
Swell Vis
km
Cloud Weather Temp
°C
Press
MSL
hPa
Rain since
9am
mm
Dir  Spd
kts
Gust
kts
Height
m
Period
s
Dir
08/11:30pm SE 13 16 - - - - - - - 24.5 1014.4 -
08/11:00pm SE 13 16 - - - - - - - 24.7 1014.5 -
08/10:30pm SE 14 16 - - - - - - - 24.7 1014.6 -
08/10:00pm SE 14 16 - - - - - - - 24.7 1014.6 -
08/09:30pm SE 14 16 - - - - - - - 24.5 1014.5 -
08/09:00pm SE 13 15 - - - - - - - 24.5 1014.3 -
08/08:30pm SE 14 16 - - - - - - - 24.4 1014.0 -
08/08:00pm SSE 14 16 - - - - - - - 24.7 1013.8 -
08/07:30pm SSE 13 15 - - - - - - - 24.5 1013.7 -
08/07:00pm SSE 13 15 - - - - - - - 24.8 1013.5 -
08/06:30pm SE 13 14 - - - - - - - 24.8 1013.2 -
08/06:00pm SE 13 15 - - - - - - - 24.7 1012.9 -
08/05:30pm SSE 12 14 - - - - - - - 24.6 1012.7 -
08/05:00pm SSE 12 14 - - - - - - - 24.8 1012.4 -
08/04:30pm SSE 12 14 - - - - - - - 24.8 1012.2 -
08/04:00pm SSE 12 14 - - - - - - - 24.9 1012.0 -
08/03:30pm SSE 12 14 - - - - - - - 24.8 1011.8 -
08/03:00pm SSE 11 14 - - - - - - - 25.0 1011.9 -
08/02:30pm SE 11 13 - - - - - - - 25.0 1012.2 -
08/02:00pm SSE 11 13 - - - - - - - 25.1 1012.5 -
08/01:30pm SE 11 13 - - - - - - - 25.3 1012.8 -
08/01:00pm SSE 11 13 - - - - - - - 25.3 1013.2 -
08/12:30pm SSE 10 12 - - - - - - - 24.8 1013.6 -
08/12:00pm SSE 10 12 - - - - - - - 25.3 1013.9 -
08/11:30am SSE 11 13 - - - - - - - 25.3 1014.3 -
08/11:00am SE 11 13 - - - - - - - 25.4 1014.6 -
08/10:30am SE 12 14 - - - - - - - 25.1 1014.8 -
08/10:00am SE 12 13 - - - - - - - 25.2 1015.0 -
08/09:30am SSE 11 13 - - - - - - - 25.2 1014.9 -
08/09:00am SSE 11 12 - - - - - - - 25.3 1014.8 -
08/08:30am SE 11 13 - - - - - - - 25.5 1014.6 -
08/08:00am SE 10 11 - - - - - - - 25.2 1014.3 -
08/07:30am SE 11 13 - - - - - - - 25.0 1014.2 -
08/07:00am SE 10 12 - - - - - - - 24.9 1014.1 -
08/06:30am SE 11 13 - - - - - - - 24.6 1013.7 -
08/06:00am SE 12 13 - - - - - - - 24.7 1013.2 -
08/05:30am SE 11 13 - - - - - - - 24.6 1012.9 -
08/05:00am SE 11 13 - - - - - - - 24.6 1012.6 -
08/04:30am SE 12 13 - - - - - - - 24.5 1012.5 -
08/04:00am SSE 10 11 - - - - - - - 24.6 1012.6 -
08/03:30am SE 11 13 - - - - - - - 24.6 1012.4 -
08/03:00am SE 11 13 - - - - - - - 24.5 1012.5 -
08/02:30am SE 11 13 - - - - - - - 24.4 1012.7 -
08/02:00am SE 11 13 - - - - - - - 24.6 1013.0 -
08/01:30am SE 11 12 - - - - - - - 24.4 1013.1 -
08/01:00am SE 10 12 - - - - - - - 24.7 1013.4 -
08/12:30am SE 10 12 - - - - - - - 24.5 1013.6 -

Other formats

Comma delimited format used in spreadsheet applications
http://www.bom.gov.au/fwo/IDQ60701/IDQ60701.95288.axf

JavaScript Object Notation format (JSON) in row-major order
http://www.bom.gov.au/fwo/IDQ60701/IDQ60701.95288.json

Data quality

Most of these data are generated automatically and are frequently updated. Quality checks on data are not normally performed. It is possible for incorrect values to appear. Refer to information at About Latest Weather Observations and please check the disclaimer before using these data.